�������l�o���
Date,Time,MP-1(��Sv/h),MP-2(��Sv/h),MP-3(��Sv/h),MP-4(��Sv/h),MP-5(��Sv/h),MP-6(��Sv/h),MP-7(��Sv/h),MP-8(��Sv/h),����,����(m/s),���J
2018/09/14,00:00,0.796,1.193,0.837,1.481,1.075,0.465,0.810,0.771,��,4.3,��
2018/09/14,00:10,0.795,1.194,0.837,1.479,1.078,0.466,0.812,0.771,��,4.8,��
2018/09/14,00:20,0.794,1.194,0.836,1.482,1.076,0.467,0.812,0.770,��쓌,4.6,��
2018/09/14,00:30,0.793,1.192,0.838,1.479,1.075,0.467,0.813,0.769,��,4.8,��
2018/09/14,00:40,0.793,1.193,0.836,1.480,1.074,0.466,0.812,0.769,��,5.5,��
2018/09/14,00:50,0.796,1.193,0.837,1.482,1.077,0.466,0.811,0.771,��,5.2,��
2018/09/14,01:00,0.795,1.193,0.836,1.480,1.074,0.466,0.812,0.768,��,5.5,��
2018/09/14,01:10,0.795,1.193,0.837,1.480,1.077,0.467,0.815,0.770,��,5.1,��
2018/09/14,01:20,0.794,1.191,0.838,1.479,1.077,0.466,0.811,0.769,��,4.2,��
2018/09/14,01:30,0.792,1.193,0.838,1.481,1.077,0.468,0.809,0.770,��,4.2,��
2018/09/14,01:40,0.793,1.191,0.836,1.484,1.074,0.466,0.811,0.770,��,5.1,�L
2018/09/14,01:50,0.794,1.193,0.836,1.480,1.077,0.465,0.812,0.769,��,6.1,�L
2018/09/14,02:00,0.793,1.195,0.836,1.483,1.077,0.467,0.812,0.770,��,6.3,�L
2018/09/14,02:10,0.794,1.192,0.837,1.481,1.077,0.467,0.812,0.770,��,6.8,�L
2018/09/14,02:20,0.795,1.192,0.838,1.482,1.078,0.467,0.811,0.768,��,7.9,�L
2018/09/14,02:30,0.792,1.191,0.839,1.479,1.073,0.468,0.811,0.769,��,6.8,�L
2018/09/14,02:40,0.791,1.187,0.836,1.478,1.072,0.467,0.810,0.768,��,6.3,�L
2018/09/14,02:50,0.789,1.187,0.837,1.477,1.069,0.469,0.807,0.767,��,5.3,�L
2018/09/14,03:00,0.787,1.178,0.836,1.477,1.068,0.466,0.808,0.766,��쐼,4.4,�L
2018/09/14,03:10,0.787,1.177,0.833,1.473,1.063,0.466,0.806,0.764,��,4.1,�L
2018/09/14,03:20,0.785,1.176,0.832,1.470,1.059,0.465,0.806,0.763,��,3.5,�L
2018/09/14,03:30,0.785,1.171,0.831,1.469,1.058,0.465,0.804,0.762,��쐼,3.9,�L
2018/09/14,03:40,0.784,1.169,0.832,1.468,1.057,0.463,0.803,0.763,��쐼,4.3,�L
2018/09/14,03:50,0.782,1.165,0.826,1.463,1.054,0.466,0.802,0.762,��쐼,3.9,�L
2018/09/14,04:00,0.781,1.164,0.826,1.462,1.051,0.465,0.802,0.762,��쐼,3.9,�L
2018/09/14,04:10,0.779,1.160,0.826,1.458,1.050,0.463,0.803,0.761,�쐼,2.8,�L
2018/09/14,04:20,0.779,1.158,0.825,1.459,1.047,0.462,0.802,0.761,�쐼,1.7,�L
2018/09/14,04:30,0.779,1.157,0.826,1.455,1.051,0.462,0.801,0.762,�쐼,1.1,�L
2018/09/14,04:40,0.779,1.157,0.824,1.455,1.050,0.463,0.800,0.761,��쐼,2.0,�L
2018/09/14,04:50,0.778,1.155,0.825,1.454,1.047,0.461,0.802,0.760,��,2.6,�L
2018/09/14,05:00,0.778,1.158,0.823,1.452,1.049,0.463,0.802,0.759,��쐼,3.4,�L
2018/09/14,05:10,0.777,1.158,0.824,1.455,1.048,0.462,0.801,0.760,��쐼,3.9,�L
2018/09/14,05:20,0.778,1.155,0.824,1.454,1.049,0.460,0.802,0.760,�쐼,3.9,�L
2018/09/14,05:30,0.777,1.156,0.824,1.454,1.047,0.461,0.802,0.760,��쐼,3.2,�L
2018/09/14,05:40,0.776,1.160,0.822,1.453,1.048,0.462,0.801,0.758,��쐼,3.8,�L
2018/09/14,05:50,0.777,1.157,0.823,1.451,1.048,0.460,0.801,0.760,��쐼,3.1,��
2018/09/14,06:00,0.777,1.159,0.821,1.451,1.049,0.460,0.800,0.761,��쐼,2.6,��
2018/09/14,06:10,0.777,1.158,0.822,1.452,1.049,0.458,0.802,0.760,�쐼,3.3,��
2018/09/14,06:20,0.777,1.158,0.821,1.452,1.049,0.459,0.801,0.762,�쐼,3.2,��
2018/09/14,06:30,0.778,1.158,0.821,1.456,1.049,0.458,0.802,0.762,�쐼,2.0,��
2018/09/14,06:40,0.777,1.160,0.821,1.453,1.052,0.460,0.802,0.760,��쐼,0.8,��
2018/09/14,06:50,0.774,1.160,0.822,1.453,1.049,0.462,0.802,0.761,��쐼,0.6,��
2018/09/14,07:00,0.775,1.159,0.821,1.452,1.049,0.461,0.803,0.761,���쓌,0.6,��
2018/09/14,07:10,0.778,1.161,0.824,1.452,1.053,0.461,0.803,0.759,���k��,1.2,��
2018/09/14,07:20,0.778,1.162,0.821,1.452,1.052,0.460,0.804,0.761,��,1.7,��
2018/09/14,07:30,0.778,1.160,0.822,1.453,1.051,0.461,0.803,0.761,���쓌,1.5,��
2018/09/14,07:40,0.779,1.160,0.821,1.453,1.051,0.462,0.804,0.762,���쓌,1.5,��
2018/09/14,07:50,0.777,1.159,0.821,1.451,1.052,0.460,0.801,0.763,���쓌,1.7,��
2018/09/14,08:00,0.778,1.157,0.820,1.450,1.051,0.459,0.801,0.762,�쓌,1.2,��
2018/09/14,08:10,0.778,1.160,0.821,1.454,1.049,0.457,0.801,0.761,��,0.9,��
2018/09/14,08:20,0.777,1.158,0.820,1.455,1.050,0.460,0.803,0.763,��,0.9,��
2018/09/14,08:30,0.779,1.159,0.821,1.449,1.052,0.460,0.803,0.759,���k��,1.5,��
2018/09/14,08:40,0.777,1.158,0.822,1.454,1.052,0.460,0.803,0.762,��,2.6,��
2018/09/14,08:50,0.778,1.161,0.821,1.453,1.053,0.459,0.804,0.761,��,2.0,��
2018/09/14,09:00,0.778,1.159,0.821,1.453,1.053,0.461,0.804,0.759,�쓌,2.6,��
2018/09/14,09:10,0.780,1.159,0.819,1.455,1.054,0.460,0.805,0.758,�쓌,2.6,��
2018/09/14,09:20,0.780,1.159,0.820,1.456,1.052,0.461,0.804,0.761,�쓌,4.1,��
2018/09/14,09:30,0.779,1.161,0.820,1.455,1.055,0.461,0.804,0.760,��쓌,6.1,��
2018/09/14,09:40,0.779,1.159,0.821,1.453,1.057,0.461,0.806,0.762,��쓌,5.9,��
2018/09/14,09:50,0.781,1.160,0.820,1.456,1.055,0.459,0.805,0.761,��쓌,7.2,��
2018/09/14,10:00,0.779,1.161,0.822,1.454,1.055,0.460,0.805,0.762,��쓌,7.1,��
2018/09/14,10:10,0.782,1.162,0.822,1.457,1.057,0.460,0.805,0.760,��쓌,6.9,��
2018/09/14,10:20,0.779,1.163,0.822,1.456,1.056,0.461,0.806,0.761,��쓌,7.6,��
2018/09/14,10:30,0.781,1.164,0.822,1.458,1.059,0.461,0.806,0.762,��쓌,6.5,��
2018/09/14,10:40,0.779,1.165,0.822,1.458,1.056,0.461,0.804,0.762,��,6.4,��
2018/09/14,10:50,0.782,1.164,0.822,1.454,1.059,0.461,0.805,0.761,��쓌,5.9,��
2018/09/14,11:00,0.782,1.168,0.822,1.458,1.058,0.461,0.806,0.762,��쓌,6.6,��
2018/09/14,11:10,0.782,1.170,0.824,1.457,1.058,0.461,0.806,0.763,��쓌,5.6,��
2018/09/14,11:20,0.783,1.171,0.826,1.459,1.061,0.462,0.804,0.761,��쓌,7.5,��
2018/09/14,11:30,0.781,1.170,0.823,1.459,1.060,0.462,0.807,0.762,��,5.0,��
2018/09/14,11:40,0.783,1.170,0.825,1.459,1.059,0.460,0.807,0.762,��쓌,5.8,��
2018/09/14,11:50,0.781,1.171,0.825,1.455,1.061,0.464,0.807,0.763,��,6.1,��
2018/09/14,12:00,0.783,1.171,0.824,1.458,1.061,0.462,0.807,0.762,��쓌,4.6,��
2018/09/14,12:10,0.783,1.171,0.826,1.457,1.060,0.463,0.806,0.763,��,5.8,��
2018/09/14,12:20,0.785,1.173,0.826,1.457,1.063,0.462,0.806,0.763,��,5.7,��
2018/09/14,12:30,0.783,1.170,0.826,1.457,1.060,0.462,0.807,0.762,��,5.0,��
2018/09/14,12:40,0.785,1.175,0.828,1.460,1.062,0.464,0.807,0.762,��쓌,7.7,��
2018/09/14,12:50,0.785,1.172,0.827,1.458,1.063,0.465,0.807,0.765,��쓌,8.4,��
2018/09/14,13:00,0.786,1.174,0.826,1.462,1.062,0.463,0.807,0.764,��쓌,9.0,��
2018/09/14,13:10,0.783,1.173,0.828,1.461,1.066,0.463,0.807,0.763,��쓌,9.1,��
2018/09/14,13:20,0.784,1.176,0.827,1.461,1.067,0.460,0.808,0.764,��쓌,9.9,��
2018/09/14,13:30,0.786,1.176,0.828,1.462,1.066,0.463,0.809,0.764,��쓌,6.8,��
2018/09/14,13:40,0.786,1.175,0.827,1.463,1.066,0.461,0.808,0.763,��쓌,10.3,��
2018/09/14,13:50,0.786,1.176,0.828,1.464,1.064,0.461,0.808,0.765,��쓌,10.7,��
2018/09/14,14:00,0.784,1.177,0.829,1.461,1.067,0.462,0.808,0.764,��,7.9,��
2018/09/14,14:10,0.787,1.173,0.827,1.465,1.065,0.461,0.807,0.764,��쓌,9.7,��
2018/09/14,14:20,0.787,1.174,0.830,1.464,1.066,0.464,0.809,0.765,��쓌,9.5,��
2018/09/14,14:30,0.784,1.178,0.829,1.464,1.065,0.463,0.807,0.763,��쓌,10.9,��
2018/09/14,14:40,0.787,1.179,0.829,1.462,1.063,0.463,0.808,0.764,��쓌,8.4,��
2018/09/14,14:50,0.785,1.179,0.827,1.463,1.067,0.463,0.807,0.764,��쓌,10.8,��
2018/09/14,15:00,0.785,1.178,0.829,1.464,1.065,0.466,0.807,0.765,��쓌,10.2,�L
2018/09/14,15:10,0.786,1.179,0.828,1.463,1.067,0.464,0.809,0.765,��쓌,8.5,��
2018/09/14,15:20,0.788,1.178,0.829,1.463,1.070,0.463,0.808,0.767,��,9.3,��
2018/09/14,15:30,0.787,1.178,0.833,1.462,1.066,0.464,0.808,0.765,��쓌,7.6,��
2018/09/14,15:40,0.785,1.177,0.829,1.465,1.067,0.463,0.809,0.766,��,7.4,��
2018/09/14,15:50,0.786,1.180,0.828,1.462,1.068,0.465,0.807,0.765,��쓌,6.9,��
2018/09/14,16:00,0.786,1.181,0.828,1.462,1.068,0.464,0.807,0.765,��,6.5,��
2018/09/14,16:10,0.786,1.181,0.830,1.461,1.068,0.466,0.808,0.766,��,6.8,��
2018/09/14,16:20,0.786,1.183,0.830,1.462,1.068,0.466,0.809,0.763,��,5.4,��
2018/09/14,16:30,0.788,1.183,0.828,1.463,1.069,0.466,0.809,0.765,��,4.7,��
2018/09/14,16:40,0.787,1.184,0.829,1.464,1.071,0.468,0.806,0.766,��,7.0,��
2018/09/14,16:50,0.787,1.185,0.830,1.464,1.070,0.467,0.809,0.765,��쓌,8.1,��
2018/09/14,17:00,0.787,1.185,0.831,1.463,1.070,0.467,0.808,0.766,��,7.7,��
2018/09/14,17:10,0.787,1.187,0.830,1.463,1.068,0.466,0.808,0.766,��,7.5,��
2018/09/14,17:20,0.785,1.185,0.831,1.465,1.067,0.467,0.810,0.767,��쐼,6.1,��
2018/09/14,17:30,0.787,1.184,0.833,1.464,1.069,0.465,0.809,0.767,��,5.9,��
2018/09/14,17:40,0.786,1.186,0.831,1.466,1.068,0.465,0.809,0.767,��,5.0,��
2018/09/14,17:50,0.788,1.187,0.831,1.465,1.070,0.466,0.810,0.769,��,4.4,��
2018/09/14,18:00,0.785,1.185,0.834,1.467,1.071,0.468,0.809,0.767,��,4.5,��
2018/09/14,18:10,0.788,1.186,0.831,1.470,1.070,0.465,0.810,0.767,��,4.5,��
2018/09/14,18:20,0.785,1.188,0.834,1.468,1.070,0.467,0.810,0.768,��,3.8,��
2018/09/14,18:30,0.789,1.184,0.836,1.470,1.071,0.467,0.809,0.768,��,3.9,��
2018/09/14,18:40,0.788,1.169,0.835,1.469,1.072,0.467,0.810,0.767,��,3.4,��
2018/09/14,18:50,0.788,1.170,0.834,1.465,1.071,0.466,0.811,0.766,��,3.6,��
2018/09/14,19:00,0.788,1.189,0.837,1.468,1.073,0.466,0.811,0.769,��,4.0,��
2018/09/14,19:10,0.788,1.187,0.833,1.466,1.071,0.466,0.810,0.768,��,3.4,��
2018/09/14,19:20,0.790,1.187,0.833,1.470,1.074,0.467,0.808,0.768,�쐼,3.2,��
2018/09/14,19:30,0.789,1.187,0.834,1.468,1.071,0.466,0.810,0.767,��,2.9,��
2018/09/14,19:40,0.791,1.187,0.833,1.467,1.073,0.467,0.810,0.768,��쓌,5.0,��
2018/09/14,19:50,0.789,1.187,0.834,1.467,1.072,0.466,0.812,0.766,��,6.6,��
2018/09/14,20:00,0.788,1.186,0.834,1.468,1.070,0.465,0.810,0.768,��쓌,7.1,��
2018/09/14,20:10,0.789,1.185,0.832,1.467,1.071,0.465,0.811,0.769,��쓌,5.4,��
2018/09/14,20:20,0.789,1.184,0.834,1.466,1.072,0.466,0.810,0.766,��쓌,6.0,��
2018/09/14,20:30,0.790,1.188,0.833,1.468,1.071,0.465,0.809,0.767,��쓌,6.3,��
2018/09/14,20:40,0.789,1.186,0.831,1.468,1.070,0.465,0.809,0.768,��쓌,5.6,��
2018/09/14,20:50,0.790,1.187,0.834,1.467,1.072,0.465,0.812,0.767,��쓌,5.8,��
2018/09/14,21:00,0.789,1.187,0.832,1.468,1.071,0.465,0.810,0.768,��,5.8,��
2018/09/14,21:10,0.787,1.188,0.834,1.469,1.072,0.465,0.810,0.767,��,5.8,��
2018/09/14,21:20,0.787,1.184,0.834,1.467,1.070,0.467,0.810,0.767,��,5.4,��
2018/09/14,21:30,0.790,1.185,0.833,1.466,1.071,0.466,0.810,0.768,��,6.0,��
2018/09/14,21:40,0.786,1.185,0.834,1.467,1.073,0.466,0.810,0.767,��,6.2,��
2018/09/14,21:50,0.787,1.189,0.833,1.470,1.074,0.467,0.810,0.767,��,5.3,��
2018/09/14,22:00,0.787,1.188,0.834,1.469,1.071,0.466,0.810,0.766,��,5.5,��
2018/09/14,22:10,0.789,1.188,0.833,1.467,1.071,0.466,0.810,0.765,��,5.6,��
2018/09/14,22:20,0.789,1.187,0.832,1.468,1.070,0.468,0.809,0.767,��,4.1,��
2018/09/14,22:30,0.788,1.184,0.833,1.467,1.071,0.467,0.810,0.767,��쓌,3.5,��
2018/09/14,22:40,0.788,1.188,0.834,1.468,1.071,0.467,0.810,0.768,��,3.8,��
2018/09/14,22:50,0.788,1.187,0.831,1.467,1.072,0.465,0.807,0.768,��,2.6,��
2018/09/14,23:00,0.789,1.186,0.833,1.469,1.072,0.466,0.810,0.768,��,2.8,��
2018/09/14,23:10,0.790,1.184,0.834,1.469,1.073,0.465,0.808,0.768,��,3.4,��
2018/09/14,23:20,0.789,1.186,0.834,1.471,1.073,0.467,0.809,0.767,��,3.2,��
2018/09/14,23:30,0.789,1.186,0.833,1.471,1.073,0.465,0.812,0.768,��,2.9,��
2018/09/14,23:40,0.791,1.187,0.833,1.467,1.072,0.466,0.809,0.768,��,3.2,��
2018/09/14,23:50,0.789,1.186,0.834,1.471,1.072,0.465,0.811,0.767,��,3.4,��
